SCP
-0 -0 0 0 0 0 0 0 0 0 0 0 0 0 0 0 0 0 0 0 0 0 0 0 0 0 0 0 0 0 0 0 0 0 0 0 0 0 0 0 0 0 0
0 0 0 0 0 0 0 0 0 0 0 0 0 0 0 0 0 0 0 0 0 0 0 0 0 0 0 0 0 0 0 0 0 0 0 0 0 0 0 0 0 0 0
0 0 0 0 0 0 0 0 0 0 0 0 0 0 0 0 0 0 0 0 0 0 0 0 0 0 0 0 0 0 0 0 0 0 0 0 0 0 0 0 0 0 0
0 0 0 0 0 0 0 0 0 0 0 0 0 0 0 0 0 0 0 0 0 0 0 0 0 0 0 0 0 0 0 0 0 0 0 0 0 0 0 0 0 0 0
0 0 0 0 -0 -0 0 0 0 0 0 0 0 0 0 0 0 0 0 0 0 0 0 0 0 0 0 0 0 0 0 0 0 0 0 0 0 0 0 0 0 0 0
0 0 0 0 0 0 -0 -0 0 0 0 0 0 0 0 0 0 0 0 0 0 0 0 0 0 0 0 0 0 0 0 0 0 0 0 0 0 0 0 0 0 0 0
0 0 0 0 0 0 0 0 -0 0 0 0 0 0 0 0 0 0 0 0 0 0 0 0 0 0 0 0 0 0 0 0 0 0 0 0 0 0 0 0 0 0 0
-0 0 0 0 0 0 0 0 0 0 0 0 0 0 0 0 0 0 0 0 0 0 0 0 0 0 0 0 0 0 0 0 0 0 0 0 0 0 0 0 0 0 0
-0 -0 -0 -0 0 0 0 0 0 0 0 0 0 0 0 0 0 0 0 0 0 0 0 0 0 0 0 0 0 0 0 0 0 0 0 0 0 0 0 0 0 0 0
0 0 -0 -0 -0 -0 0 0 0 0 0 0 0 0 0 0 0 0 0 0 0 0 0 0 0 0 0 0 0 0 0 0 0 0 0 0 0 0 0 0 0 0 0
-0 -0 -0 0 0 -0 -0 -0 -0 0 0 0 0 0 0 0 0 0 0 0 0 0 0 0 0 0 0 0 0 0 0 0 0 0 0 0 0 0 0 0 0 0 0
-0 -0 -0 -0 -0 0 0 0 0 0 0 0 0 0 0 0 0 0 0 0 0 0 0 0 0 0 0 0 0 0 0 0 0 0 0 0 0 0 0 0 0 0 0
-0 -0 -0 -0 -0 -0 -0 0 0 0 0 0 0 0 0 0 0 0 0 0 0 0 0 0 0 0 0 0 0 0 0 0 0 0 0 0 0 0 0 0 0 0 0
-0 -0 -0 -0 -0 -0 -0 -0 0 0 0 0 0 0 0 0 0 0 0 0 0 0 0 0 0 0 0 0 0 0 0 0 0 0 0 0 0 0 0 0 0 0 0
-0 -0 -0 -0 -0 -0 -0 -0 -0 0 0 0 0 0 0 0 0 0 0 0 0 0 0 0 0 0 0 0 0 0 0 0 0 0 0 0 0 0 0 0 0 0 0
0 0 -0 -0 -0 -0 -0 -0 0 0 0 0 0 0 0 0 0 0 0 0 0 0 0 0 0 0 0 0 0 0 0 0 0 0 0 0 0 0 0 0 0 0 0
0 0 0 -0 0 0 -0 0 0 0 0 0 0 0 0 0 0 0 -0 0 0 0 0 0 0 0 0 0 0 0 0 0 0 0 0 0 0 0 0 0 0 0 0
0 0 0 0 0 0 0 0 0 0 0 0 0 0 0 0 0 0 -0 0 0 0 0 0 0 0 0 0 0 0 0 0 0 0 0 0 0 0 0 0 0 0 0
0 0 0 0 0 0 0 0 0 0 0 0 0 0 0 0 0 0 -0 0 0 0 0 0 0 0 0 0 0 0 0 0 0 0 0 0 0 0 0 0 0 0 0
0 0 0 0 0 0 0 0 0 0 0 0 0 0 0 0 0 0 0 0 0 0 0 0 0 0 0 0 0 0 0 0 0 0 0 0 0 0 0 0 0 0 0
0 0 0 0 0 0 0 0 0 0 0 0 0 0 0 0 0 0 0 0 0 0 0 0 0 0 0 0 0 0 0 0 0 0 0 0 0 0 0 0 0 0 0
0 0 0 0 0 0 0 0 0 0 0 0 0 0 0 0 0 0 0 0 0 0 0 0 0 0 0 0 0 0 0 0 0 0 0 0 0 0 0 0 0 0 0
0 0 -0 -0 0 0 0 0 0 0 0 0 0 0 0 0 0 0 0 0 0 0 0 0 0 0 0 0 0 0 0 0 0 0 0 0 0 0 0 0 0 0 0
0 0 -0 0 -0 0 0 0 0 0 0 0 0 0 0 0 0 0 0 0 0 0 0 0 0 0 0 0 0 0 0 0 0 0 0 0 0 0 0 0 0 0 0
0 0 0 0 0 0 0 0 0 0 0 0 0 0 0 0 0 0 0 0 0 0 0 0 0 0 0 0 0 0 0 0 0 0 0 0 0 0 0 0 0 0 0
0 0 0 0 0 -0 -0 0 0 0 0 0 0 0 0 0 0 0 0 0 0 0 0 0 0 0 0 0 0 0 0 0 0 0 0 0 0 0 0 0 0 0 0
Wind_Speed_500mb
62 56 52 54 54 55 60 65 72 80 84 89 90 95 102 109 115 114 115 108 102 100 97 93 88 83 81 77 71 66 61 55 48 47 42 38 36 32 33 37 40 44 45
64 63 58 53 51 55 60 66 66 65 73 83 87 95 98 100 107 112 120 115 108 110 104 99 96 90 88 81 77 71 64 56 52 50 48 45 42 40 41 45 48 51 51
69 70 68 64 61 54 58 60 67 67 68 73 86 95 101 102 102 103 113 117 115 114 110 106 102 99 94 90 85 77 67 62 58 54 52 48 45 44 46 50 50 51 49
74 73 77 78 73 67 57 56 61 64 72 76 81 90 96 100 104 102 106 115 119 118 116 111 105 102 99 93 88 80 72 66 61 58 54 50 45 45 47 44 43 45 46
88 78 76 81 85 76 69 62 58 62 68 77 80 89 94 99 106 106 103 111 117 124 119 113 110 101 100 91 87 83 77 69 66 64 58 52 50 46 42 38 40 43 47
80 89 85 85 77 86 81 68 68 64 64 75 87 89 91 95 101 102 104 113 115 120 120 114 111 104 100 93 88 80 73 73 73 69 60 56 49 42 37 37 37 40 40
74 78 86 88 92 78 82 79 66 66 67 70 79 89 96 94 96 97 104 112 111 113 117 113 111 110 102 99 93 84 77 76 75 66 62 56 46 39 36 35 35 37 41
73 77 83 84 87 92 84 79 74 59 63 67 75 84 88 96 96 94 106 107 105 109 104 103 111 112 109 102 95 89 85 81 78 72 60 49 42 36 36 35 32 36 43
82 83 84 86 81 82 84 85 81 75 59 61 64 74 76 89 93 92 99 100 105 111 100 105 109 103 104 101 97 94 84 83 75 66 52 47 44 39 35 31 28 34 43
88 93 95 86 87 87 82 79 79 77 74 60 61 63 67 75 86 82 91 98 111 100 96 101 104 105 105 101 101 94 88 79 74 64 55 52 42 33 30 29 28 30 35
93 99 101 103 96 87 87 81 75 76 73 68 61 61 65 69 74 74 80 99 99 97 91 101 101 99 95 97 94 88 81 75 69 62 56 48 41 35 32 29 29 32 34
96 100 103 106 108 96 89 86 78 72 75 68 62 62 61 63 64 62 69 98 87 81 86 97 101 96 91 87 87 78 73 71 67 65 53 49 43 36 32 30 29 29 31
106 104 104 104 109 108 93 89 81 73 75 68 66 62 65 62 60 61 69 86 85 74 79 83 84 87 82 80 70 69 70 69 66 57 51 46 40 35 32 28 26 28 32
119 122 114 110 104 106 101 84 80 73 70 70 70 68 61 62 55 54 57 85 83 73 66 69 76 81 78 75 61 47 55 58 49 47 46 42 37 30 25 26 27 32 40
120 119 119 111 104 98 101 90 77 79 68 68 70 68 61 59 57 49 61 90 87 75 65 69 73 78 81 80 82 79 71 62 55 52 47 42 35 29 23 22 27 33 40
112 108 102 100 99 93 92 96 78 64 64 66 59 62 61 52 45 45 60 83 88 80 64 77 81 87 93 94 88 83 71 54 55 54 50 41 33 26 23 21 26 34 43
94 94 89 86 86 83 82 79 79 66 55 54 59 53 58 49 44 39 55 75 86 78 74 75 86 94 99 90 89 85 70 61 59 51 42 33 27 22 21 22 28 38 47
85 85 84 82 79 76 74 70 53 56 62 63 46 53 50 53 43 41 53 65 71 77 84 83 84 88 88 88 86 76 65 63 58 47 38 33 28 21 21 24 29 39 49
81 81 77 76 74 72 69 71 69 62 60 63 50 41 46 49 53 41 56 83 85 86 87 81 75 82 89 89 78 68 62 57 49 43 37 29 25 20 19 24 32 40 49
74 72 68 68 67 65 63 61 58 50 51 58 51 45 38 51 58 53 64 82 78 93 92 80 77 84 86 76 68 61 60 52 44 36 30 25 22 20 22 27 33 43 50
76 75 71 69 66 62 60 58 53 40 50 52 48 40 35 57 67 55 64 68 81 88 86 71 69 67 65 66 61 58 50 44 39 33 27 22 20 20 24 29 38 45 52
70 72 70 68 64 60 53 46 40 35 44 42 38 32 35 54 62 57 68 71 72 69 64 58 54 59 63 59 54 49 43 38 32 26 22 20 20 21 25 32 40 47 54
61 64 62 56 48 41 39 31 27 34 36 31 27 29 41 59 57 57 61 58 56 56 49 45 52 58 51 49 46 39 34 29 24 20 19 20 21 23 28 35 42 48 55
50 37 23 23 23 19 15 18 25 21 22 25 29 33 40 46 44 49 53 49 46 43 45 50 49 44 45 42 37 32 27 22 20 19 20 20 22 24 30 38 44 50 58
38 35 26 20 16 13 14 11 10 14 21 24 29 33 36 38 42 46 47 48 49 47 49 47 43 41 36 31 27 25 23 21 19 20 20 22 25 28 33 42 47 53 61
34 30 24 18 12 7 5 8 12 16 20 23 26 27 30 40 50 53 54 49 46 47 44 40 36 31 27 25 23 20 19 19 17 19 22 25 28 30 37 44 49 57 62
Wind_Direction_500mb
341 330 318 312 306 298 288 279 270 267 260 254 246 242 238 234 231 229 229 228 227 229 230 231 232 234 235 234 233 233 234 234 233 239 249 258 268 276 284 293 296 298 303
345 342 331 313 305 295 292 285 276 270 262 257 252 246 240 236 233 231 231 228 227 228 227 228 231 230 232 234 235 234 235 236 236 240 244 251 258 266 278 285 290 293 296
345 344 344 337 319 301 293 289 283 275 265 258 251 246 244 240 235 232 232 233 230 229 230 229 229 229 229 230 232 232 233 235 237 240 246 245 249 257 267 273 276 288 305
347 346 345 347 337 321 297 288 282 274 271 262 253 250 247 245 241 235 232 233 233 232 231 230 231 232 231 230 230 232 232 232 236 239 240 244 248 259 266 276 287 299 307
336 339 342 342 343 336 319 295 281 275 271 266 259 251 246 244 242 239 235 234 234 233 232 231 232 233 235 234 231 229 229 231 235 235 236 239 247 254 267 281 290 301 306
334 338 333 330 335 341 337 316 293 280 275 270 263 255 249 247 246 245 241 238 235 235 233 231 232 232 232 231 229 227 233 236 234 233 233 238 244 254 264 276 291 300 312
330 328 331 331 326 330 336 335 314 290 282 273 270 262 253 250 248 248 245 240 237 237 235 232 230 231 228 227 227 227 229 232 232 236 234 238 240 252 264 275 287 299 305
335 332 328 326 327 323 322 328 330 310 284 277 272 267 261 256 250 249 246 240 237 236 236 238 236 232 227 224 225 226 226 227 229 230 232 236 243 250 262 273 289 300 304
330 329 328 326 323 320 317 317 317 320 307 286 275 271 263 261 257 252 248 242 235 232 238 238 235 233 228 227 224 226 224 224 224 228 230 238 245 250 260 275 281 290 301
323 324 325 324 322 318 315 312 306 309 310 299 286 274 268 262 258 250 246 242 235 234 233 235 233 231 224 224 224 223 223 221 219 221 224 232 237 240 247 259 272 283 294
315 316 317 319 319 316 314 309 304 302 302 302 290 280 270 261 256 247 243 237 238 233 231 233 231 226 221 222 225 225 225 222 219 220 223 226 228 231 239 253 266 278 291
307 309 311 313 312 314 311 307 300 295 294 293 295 283 271 263 253 242 225 226 235 235 233 231 229 222 215 219 224 222 219 219 218 221 219 219 222 229 239 248 258 275 291
305 304 304 306 307 308 307 302 298 289 287 287 288 283 275 264 253 241 216 220 232 234 233 234 227 217 214 217 219 217 212 217 218 220 220 220 223 227 235 249 266 281 287
300 301 301 301 299 299 301 298 293 287 281 284 279 276 277 269 257 243 216 215 222 227 226 220 216 208 207 206 196 201 212 216 223 222 222 223 229 233 244 263 277 290 297
297 297 297 297 297 294 292 292 287 283 277 273 275 275 273 274 269 247 212 211 213 222 210 205 199 200 199 199 199 207 213 216 216 222 226 228 231 238 249 268 290 304 312
293 293 293 293 291 289 288 288 283 272 266 267 269 267 272 273 268 257 213 213 217 218 211 201 199 199 204 200 202 208 212 208 211 218 222 226 232 245 258 276 300 313 319
292 293 290 289 287 285 284 283 285 280 264 264 257 259 256 268 261 246 214 213 213 209 213 206 201 199 202 203 207 209 207 203 211 214 220 229 238 250 274 298 312 320 323
296 293 289 287 285 283 281 281 271 269 275 276 260 250 249 249 252 238 206 203 193 201 214 212 209 208 209 211 208 206 201 203 208 211 217 229 241 257 281 300 317 325 327
296 292 289 286 285 283 280 276 275 269 258 267 276 257 238 235 240 220 201 202 200 199 209 208 217 213 210 211 207 198 200 205 208 210 215 227 247 265 282 302 319 327 329
301 298 295 290 287 285 282 278 274 268 259 260 268 262 247 220 214 211 205 202 200 206 208 207 210 213 208 202 196 194 199 201 205 212 219 231 250 276 297 312 322 326 331
307 303 299 293 286 283 281 277 272 258 259 259 265 258 236 223 217 210 210 208 207 205 206 207 215 208 202 192 186 193 197 203 207 213 224 239 261 284 297 310 320 325 328
306 299 294 287 287 283 281 278 270 254 255 261 263 248 214 215 215 206 207 211 208 207 214 214 212 199 190 182 184 193 196 201 207 216 229 247 268 287 299 310 318 323 326
315 308 298 292 288 284 283 274 266 260 264 260 244 225 210 199 203 205 206 200 195 201 205 199 192 181 175 179 183 187 194 201 212 228 244 257 273 290 298 308 316 319 326
339 340 324 307 304 300 297 288 279 266 247 230 214 206 202 193 201 194 189 181 180 187 183 178 172 172 178 179 180 185 197 209 224 241 258 274 282 285 296 305 314 322 323
0 1 1 353 343 313 295 270 241 215 204 202 196 192 187 187 182 174 172 174 171 169 168 162 169 176 178 181 184 192 205 219 236 256 270 281 281 285 295 307 317 318 317
22 27 32 33 39 57 104 139 151 160 168 168 167 165 166 163 157 157 157 158 162 160 157 165 172 174 179 185 192 202 216 229 245 263 271 277 284 296 307 312 315 313 311
Wind_Speed_850mb
62 56 52 54 54 55 60 65 72 80 84 89 90 95 102 109 115 114 115 108 102 100 97 93 88 83 81 77 71 66 61 55 48 47 42 38 36 32 33 37 40 44 45
64 63 58 53 51 55 60 66 66 65 73 83 87 95 98 100 107 112 120 115 108 110 104 99 96 90 88 81 77 71 64 56 52 50 48 45 42 40 41 45 48 51 51
69 70 68 64 61 54 58 60 67 67 68 73 86 95 101 102 102 103 113 117 115 114 110 106 102 99 94 90 85 77 67 62 58 54 52 48 45 44 46 50 50 51 49
74 73 77 78 73 67 57 56 61 64 72 76 81 90 96 100 104 102 106 115 119 118 116 111 105 102 99 93 88 80 72 66 61 58 54 50 45 45 47 44 43 45 46
88 78 76 81 85 76 69 62 58 62 68 77 80 89 94 99 106 106 103 111 117 124 119 113 110 101 100 91 87 83 77 69 66 64 58 52 50 46 42 38 40 43 47
80 89 85 85 77 86 81 68 68 64 64 75 87 89 91 95 101 102 104 113 115 120 120 114 111 104 100 93 88 80 73 73 73 69 60 56 49 42 37 37 37 40 40
74 78 86 88 92 78 82 79 66 66 67 70 79 89 96 94 96 97 104 112 111 113 117 113 111 110 102 99 93 84 77 76 75 66 62 56 46 39 36 35 35 37 41
73 77 83 84 87 92 84 79 74 59 63 67 75 84 88 96 96 94 106 107 105 109 104 103 111 112 109 102 95 89 85 81 78 72 60 49 42 36 36 35 32 36 43
82 83 84 86 81 82 84 85 81 75 59 61 64 74 76 89 93 92 99 100 105 111 100 105 109 103 104 101 97 94 84 83 75 66 52 47 44 39 35 31 28 34 43
88 93 95 86 87 87 82 79 79 77 74 60 61 63 67 75 86 82 91 98 111 100 96 101 104 105 105 101 101 94 88 79 74 64 55 52 42 33 30 29 28 30 35
93 99 101 103 96 87 87 81 75 76 73 68 61 61 65 69 74 74 80 99 99 97 91 101 101 99 95 97 94 88 81 75 69 62 56 48 41 35 32 29 29 32 34
96 100 103 106 108 96 89 86 78 72 75 68 62 62 61 63 64 62 69 98 87 81 86 97 101 96 91 87 87 78 73 71 67 65 53 49 43 36 32 30 29 29 31
106 104 104 104 109 108 93 89 81 73 75 68 66 62 65 62 60 61 69 86 85 74 79 83 84 87 82 80 70 69 70 69 66 57 51 46 40 35 32 28 26 28 32
119 122 114 110 104 106 101 84 80 73 70 70 70 68 61 62 55 54 57 85 83 73 66 69 76 81 78 75 61 47 55 58 49 47 46 42 37 30 25 26 27 32 40
120 119 119 111 104 98 101 90 77 79 68 68 70 68 61 59 57 49 61 90 87 75 65 69 73 78 81 80 82 79 71 62 55 52 47 42 35 29 23 22 27 33 40
112 108 102 100 99 93 92 96 78 64 64 66 59 62 61 52 45 45 60 83 88 80 64 77 81 87 93 94 88 83 71 54 55 54 50 41 33 26 23 21 26 34 43
94 94 89 86 86 83 82 79 79 66 55 54 59 53 58 49 44 39 55 75 86 78 74 75 86 94 99 90 89 85 70 61 59 51 42 33 27 22 21 22 28 38 47
85 85 84 82 79 76 74 70 53 56 62 63 46 53 50 53 43 41 53 65 71 77 84 83 84 88 88 88 86 76 65 63 58 47 38 33 28 21 21 24 29 39 49
81 81 77 76 74 72 69 71 69 62 60 63 50 41 46 49 53 41 56 83 85 86 87 81 75 82 89 89 78 68 62 57 49 43 37 29 25 20 19 24 32 40 49
74 72 68 68 67 65 63 61 58 50 51 58 51 45 38 51 58 53 64 82 78 93 92 80 77 84 86 76 68 61 60 52 44 36 30 25 22 20 22 27 33 43 50
76 75 71 69 66 62 60 58 53 40 50 52 48 40 35 57 67 55 64 68 81 88 86 71 69 67 65 66 61 58 50 44 39 33 27 22 20 20 24 29 38 45 52
70 72 70 68 64 60 53 46 40 35 44 42 38 32 35 54 62 57 68 71 72 69 64 58 54 59 63 59 54 49 43 38 32 26 22 20 20 21 25 32 40 47 54
61 64 62 56 48 41 39 31 27 34 36 31 27 29 41 59 57 57 61 58 56 56 49 45 52 58 51 49 46 39 34 29 24 20 19 20 21 23 28 35 42 48 55
50 37 23 23 23 19 15 18 25 21 22 25 29 33 40 46 44 49 53 49 46 43 45 50 49 44 45 42 37 32 27 22 20 19 20 20 22 24 30 38 44 50 58
38 35 26 20 16 13 14 11 10 14 21 24 29 33 36 38 42 46 47 48 49 47 49 47 43 41 36 31 27 25 23 21 19 20 20 22 25 28 33 42 47 53 61
34 30 24 18 12 7 5 8 12 16 20 23 26 27 30 40 50 53 54 49 46 47 44 40 36 31 27 25 23 20 19 19 17 19 22 25 28 30 37 44 49 57 62
Wind_Direction_850mb
341 330 318 312 306 298 288 279 270 267 260 254 246 242 238 234 231 229 229 228 227 229 230 231 232 234 235 234 233 233 234 234 233 239 249 258 268 276 284 293 296 298 303
345 342 331 313 305 295 292 285 276 270 262 257 252 246 240 236 233 231 231 228 227 228 227 228 231 230 232 234 235 234 235 236 236 240 244 251 258 266 278 285 290 293 296
345 344 344 337 319 301 293 289 283 275 265 258 251 246 244 240 235 232 232 233 230 229 230 229 229 229 229 230 232 232 233 235 237 240 246 245 249 257 267 273 276 288 305
347 346 345 347 337 321 297 288 282 274 271 262 253 250 247 245 241 235 232 233 233 232 231 230 231 232 231 230 230 232 232 232 236 239 240 244 248 259 266 276 287 299 307
336 339 342 342 343 336 319 295 281 275 271 266 259 251 246 244 242 239 235 234 234 233 232 231 232 233 235 234 231 229 229 231 235 235 236 239 247 254 267 281 290 301 306
334 338 333 330 335 341 337 316 293 280 275 270 263 255 249 247 246 245 241 238 235 235 233 231 232 232 232 231 229 227 233 236 234 233 233 238 244 254 264 276 291 300 312
330 328 331 331 326 330 336 335 314 290 282 273 270 262 253 250 248 248 245 240 237 237 235 232 230 231 228 227 227 227 229 232 232 236 234 238 240 252 264 275 287 299 305
335 332 328 326 327 323 322 328 330 310 284 277 272 267 261 256 250 249 246 240 237 236 236 238 236 232 227 224 225 226 226 227 229 230 232 236 243 250 262 273 289 300 304
330 329 328 326 323 320 317 317 317 320 307 286 275 271 263 261 257 252 248 242 235 232 238 238 235 233 228 227 224 226 224 224 224 228 230 238 245 250 260 275 281 290 301
323 324 325 324 322 318 315 312 306 309 310 299 286 274 268 262 258 250 246 242 235 234 233 235 233 231 224 224 224 223 223 221 219 221 224 232 237 240 247 259 272 283 294
315 316 317 319 319 316 314 309 304 302 302 302 290 280 270 261 256 247 243 237 238 233 231 233 231 226 221 222 225 225 225 222 219 220 223 226 228 231 239 253 266 278 291
307 309 311 313 312 314 311 307 300 295 294 293 295 283 271 263 253 242 225 226 235 235 233 231 229 222 215 219 224 222 219 219 218 221 219 219 222 229 239 248 258 275 291
305 304 304 306 307 308 307 302 298 289 287 287 288 283 275 264 253 241 216 220 232 234 233 234 227 217 214 217 219 217 212 217 218 220 220 220 223 227 235 249 266 281 287
300 301 301 301 299 299 301 298 293 287 281 284 279 276 277 269 257 243 216 215 222 227 226 220 216 208 207 206 196 201 212 216 223 222 222 223 229 233 244 263 277 290 297
297 297 297 297 297 294 292 292 287 283 277 273 275 275 273 274 269 247 212 211 213 222 210 205 199 200 199 199 199 207 213 216 216 222 226 228 231 238 249 268 290 304 312
293 293 293 293 291 289 288 288 283 272 266 267 269 267 272 273 268 257 213 213 217 218 211 201 199 199 204 200 202 208 212 208 211 218 222 226 232 245 258 276 300 313 319
292 293 290 289 287 285 284 283 285 280 264 264 257 259 256 268 261 246 214 213 213 209 213 206 201 199 202 203 207 209 207 203 211 214 220 229 238 250 274 298 312 320 323
296 293 289 287 285 283 281 281 271 269 275 276 260 250 249 249 252 238 206 203 193 201 214 212 209 208 209 211 208 206 201 203 208 211 217 229 241 257 281 300 317 325 327
296 292 289 286 285 283 280 276 275 269 258 267 276 257 238 235 240 220 201 202 200 199 209 208 217 213 210 211 207 198 200 205 208 210 215 227 247 265 282 302 319 327 329
301 298 295 290 287 285 282 278 274 268 259 260 268 262 247 220 214 211 205 202 200 206 208 207 210 213 208 202 196 194 199 201 205 212 219 231 250 276 297 312 322 326 331
307 303 299 293 286 283 281 277 272 258 259 259 265 258 236 223 217 210 210 208 207 205 206 207 215 208 202 192 186 193 197 203 207 213 224 239 261 284 297 310 320 325 328
306 299 294 287 287 283 281 278 270 254 255 261 263 248 214 215 215 206 207 211 208 207 214 214 212 199 190 182 184 193 196 201 207 216 229 247 268 287 299 310 318 323 326
315 308 298 292 288 284 283 274 266 260 264 260 244 225 210 199 203 205 206 200 195 201 205 199 192 181 175 179 183 187 194 201 212 228 244 257 273 290 298 308 316 319 326
339 340 324 307 304 300 297 288 279 266 247 230 214 206 202 193 201 194 189 181 180 187 183 178 172 172 178 179 180 185 197 209 224 241 258 274 282 285 296 305 314 322 323
0 1 1 353 343 313 295 270 241 215 204 202 196 192 187 187 182 174 172 174 171 169 168 162 169 176 178 181 184 192 205 219 236 256 270 281 281 285 295 307 317 318 317
22 27 32 33 39 57 104 139 151 160 168 168 167 165 166 163 157 157 157 158 162 160 157 165 172 174 179 185 192 202 216 229 245 263 271 277 284 296 307 312 315 313 311